GXA2287 KCRP-KMSY

Flight info

Callsign GXA2287
Flight time 0h 59m
Altitude 35000
Route WORRY V13 PSX SBI AWDAD AWDAD1
Aircraft A320/M-VGDW/C

Departure

Time 2026-04-15 21:48
Airport Corpus Christi International Airport (KCRP)

Arrival

Time 2026-04-15 22:48
Airport Louis Armstrong New Orleans International Airport (KMSY)
Time Latitude Longitude Altitude Speed Heading
2026-04-15 21:19 27.77696 -97.50671 56 ft 0 kts 225°
2026-04-15 21:39 27.77699 -97.50667 49 ft 2 kts 230°
2026-04-15 21:39 27.77708 -97.50657 50 ft 3 kts 305°
2026-04-15 21:39 27.77705 -97.50656 50 ft 3 kts 356°
2026-04-15 21:39 27.77686 -97.50653 56 ft 3 kts 333°
2026-04-15 21:40 27.77681 -97.50651 49 ft 0 kts 320°
2026-04-15 21:44 27.77686 -97.50654 56 ft 3 kts 324°
2026-04-15 21:45 27.77712 -97.50675 51 ft 7 kts 325°
2026-04-15 21:45 27.77760 -97.50714 55 ft 10 kts 324°
2026-04-15 21:45 27.77821 -97.50766 55 ft 11 kts 319°
2026-04-15 21:45 27.77873 -97.50823 56 ft 10 kts 316°
2026-04-15 21:46 27.77922 -97.50880 53 ft 11 kts 300°
2026-04-15 21:46 27.77900 -97.50954 54 ft 11 kts 225°
2026-04-15 21:46 27.77835 -97.51029 50 ft 15 kts 227°
2026-04-15 21:46 27.77753 -97.51122 52 ft 18 kts 229°
2026-04-15 21:47 27.77723 -97.51227 50 ft 13 kts 269°
2026-04-15 21:47 27.77719 -97.51298 49 ft 8 kts 258°
2026-04-15 21:47 27.77680 -97.51318 49 ft 7 kts 140°
2026-04-15 21:47 27.77637 -97.51266 47 ft 19 kts 136°
2026-04-15 21:48 27.77347 -97.50948 54 ft 95 kts 136°
2026-04-15 21:48 27.76727 -97.50269 193 ft 140 kts 136°
2026-04-15 21:48 27.76009 -97.49464 824 ft 149 kts 136°
2026-04-15 21:48 27.75252 -97.48634 1605 ft 154 kts 138°
2026-04-15 21:49 27.74440 -97.47759 2162 ft 172 kts 139°
2026-04-15 21:49 27.73602 -97.46691 2581 ft 201 kts 122°
2026-04-15 21:49 27.73383 -97.45016 3093 ft 240 kts 83°
2026-04-15 21:49 27.74263 -97.43269 3669 ft 277 kts 45°
2026-04-15 21:50 27.75923 -97.42072 4599 ft 288 kts 25°
2026-04-15 21:50 27.77807 -97.41235 5670 ft 292 kts 19°
2026-04-15 21:50 27.79732 -97.40514 6690 ft 297 kts 19°
2026-04-15 21:50 27.81706 -97.39766 7625 ft 302 kts 20°
2026-04-15 21:51 27.83708 -97.38943 8553 ft 307 kts 21°
2026-04-15 21:51 27.85715 -97.38048 9466 ft 312 kts 23°
2026-04-15 21:51 27.87731 -97.37093 10314 ft 316 kts 24°
2026-04-15 21:51 27.89767 -97.36094 11140 ft 321 kts 24°
2026-04-15 21:52 27.91796 -97.35085 11964 ft 324 kts 24°
2026-04-15 21:52 27.93875 -97.34049 12818 ft 328 kts 23°
2026-04-15 21:52 27.95979 -97.33006 13680 ft 331 kts 22°
2026-04-15 21:52 27.98104 -97.31955 14448 ft 335 kts 22°
2026-04-15 21:53 28.00263 -97.30892 15199 ft 340 kts 22°
2026-04-15 21:53 28.02442 -97.29820 15945 ft 344 kts 22°
2026-04-15 21:53 28.04621 -97.28745 16667 ft 348 kts 22°
2026-04-15 21:53 28.06855 -97.27639 17406 ft 352 kts 22°
2026-04-15 21:54 28.09112 -97.26517 18142 ft 356 kts 23°
2026-04-15 21:54 28.11322 -97.25172 18782 ft 362 kts 32°
2026-04-15 21:54 28.13378 -97.23482 19390 ft 367 kts 39°
2026-04-15 21:54 28.15353 -97.21665 19994 ft 373 kts 39°
2026-04-15 21:55 28.17385 -97.19799 20599 ft 378 kts 39°
2026-04-15 21:55 28.19441 -97.17913 21191 ft 384 kts 39°
2026-04-15 21:55 28.21529 -97.15998 21785 ft 389 kts 39°
2026-04-15 21:55 28.23652 -97.14048 22385 ft 395 kts 39°
2026-04-15 21:56 28.25806 -97.12068 22985 ft 400 kts 39°
2026-04-15 21:56 28.27955 -97.10089 23568 ft 405 kts 39°
2026-04-15 21:56 28.30162 -97.08060 24071 ft 410 kts 38°
2026-04-15 21:56 28.32404 -97.05998 24590 ft 415 kts 38°
2026-04-15 21:57 28.34657 -97.03922 25116 ft 419 kts 38°
2026-04-15 21:57 28.36900 -97.01849 25639 ft 423 kts 38°
2026-04-15 21:57 28.39192 -96.99731 26172 ft 426 kts 37°
2026-04-15 21:57 28.41509 -96.97587 26708 ft 431 kts 38°
2026-04-15 21:58 28.43707 -96.95243 27236 ft 436 kts 45°
2026-04-15 21:58 28.45683 -96.92595 27768 ft 441 kts 53°
2026-04-15 21:58 28.47386 -96.89693 28437 ft 441 kts 60°
2026-04-15 21:58 28.48875 -96.86684 29092 ft 442 kts 60°
2026-04-15 21:59 28.50375 -96.83640 29737 ft 442 kts 60°
2026-04-15 21:59 28.51885 -96.80583 30333 ft 443 kts 60°
2026-04-15 21:59 28.53397 -96.77527 30829 ft 444 kts 60°
2026-04-15 21:59 28.54915 -96.74460 31299 ft 446 kts 60°
2026-04-15 22:00 28.56438 -96.71375 31767 ft 448 kts 60°
2026-04-15 22:00 28.57972 -96.68266 32232 ft 450 kts 60°
2026-04-15 22:00 28.59489 -96.65188 32684 ft 452 kts 60°
2026-04-15 22:00 28.61033 -96.62049 33147 ft 454 kts 60°
2026-04-15 22:01 28.62582 -96.58897 33593 ft 456 kts 60°
2026-04-15 22:01 28.64137 -96.55731 34020 ft 458 kts 60°
2026-04-15 22:01 28.65677 -96.52598 34396 ft 460 kts 60°
2026-04-15 22:01 28.67245 -96.49410 34783 ft 460 kts 60°
2026-04-15 22:02 28.68824 -96.46195 34992 ft 468 kts 60°
2026-04-15 22:02 28.70437 -96.42906 35047 ft 480 kts 60°
2026-04-15 22:02 28.72068 -96.39576 35040 ft 492 kts 60°
2026-04-15 22:02 28.73757 -96.36120 35048 ft 504 kts 60°
2026-04-15 22:03 28.75482 -96.32598 35049 ft 514 kts 60°
2026-04-15 22:03 28.77222 -96.28974 35047 ft 525 kts 62°
2026-04-15 22:03 28.78900 -96.25224 35045 ft 535 kts 64°
2026-04-15 22:04 28.82085 -96.17460 35047 ft 550 kts 66°
2026-04-15 22:04 28.85256 -96.09505 35036 ft 554 kts 65°
2026-04-15 22:05 28.88499 -96.01522 35018 ft 555 kts 65°
2026-04-15 22:05 28.91854 -95.93563 35035 ft 555 kts 64°
2026-04-15 22:06 28.95209 -95.85603 35035 ft 555 kts 65°
2026-04-15 22:06 28.98488 -95.77672 35034 ft 554 kts 65°
2026-04-15 22:07 29.01758 -95.69693 35038 ft 554 kts 65°
2026-04-15 22:07 29.05024 -95.61750 35063 ft 554 kts 65°
2026-04-15 22:08 29.08307 -95.53775 35072 ft 554 kts 65°
2026-04-15 22:08 29.11581 -95.45786 35070 ft 553 kts 65°
2026-04-15 22:09 29.14824 -95.37868 35077 ft 553 kts 65°
2026-04-15 22:09 29.18086 -95.29905 35071 ft 552 kts 65°
2026-04-15 22:10 29.21325 -95.21974 35066 ft 552 kts 65°
2026-04-15 22:10 29.24564 -95.14000 35073 ft 551 kts 65°
2026-04-15 22:11 29.27793 -95.06015 35084 ft 551 kts 65°
2026-04-15 22:11 29.30990 -94.98098 35090 ft 550 kts 65°
2026-04-15 22:12 29.34212 -94.90133 35095 ft 550 kts 65°
2026-04-15 22:12 29.37427 -94.82185 35093 ft 549 kts 65°
2026-04-15 22:13 29.40610 -94.74284 35091 ft 548 kts 65°
2026-04-15 22:13 29.43804 -94.66319 35089 ft 548 kts 65°
2026-04-15 22:14 29.46982 -94.58379 35089 ft 547 kts 65°
2026-04-15 22:14 29.50158 -94.50435 35089 ft 547 kts 65°
2026-04-15 22:15 29.53307 -94.42548 35092 ft 546 kts 65°
2026-04-15 22:15 29.56470 -94.34612 35088 ft 545 kts 65°
2026-04-15 22:16 29.59622 -94.26682 35086 ft 545 kts 65°
2026-04-15 22:16 29.62770 -94.18735 35090 ft 545 kts 65°
2026-04-15 22:17 29.65896 -94.10844 35092 ft 544 kts 65°
2026-04-15 22:17 29.68704 -94.02767 35093 ft 543 kts 76°
2026-04-15 22:18 29.70109 -93.94313 35103 ft 541 kts 82°
2026-04-15 22:18 29.71391 -93.85773 35103 ft 540 kts 82°
2026-04-15 22:19 29.72665 -93.77298 35096 ft 539 kts 82°
2026-04-15 22:19 29.73934 -93.68783 35106 ft 539 kts 82°
2026-04-15 22:20 29.75193 -93.60289 35111 ft 538 kts 82°
2026-04-15 22:20 29.76444 -93.51848 35115 ft 537 kts 82°
2026-04-15 22:21 29.77689 -93.43367 35113 ft 536 kts 82°
2026-04-15 22:21 29.78924 -93.34884 35114 ft 536 kts 82°
2026-04-15 22:22 29.80161 -93.26428 35112 ft 535 kts 82°
2026-04-15 22:22 29.81395 -93.17987 35120 ft 534 kts 82°
2026-04-15 22:23 29.82603 -93.09604 35113 ft 533 kts 82°
2026-04-15 22:23 29.83810 -93.01160 35113 ft 532 kts 82°
2026-04-15 22:24 29.85018 -92.92743 35110 ft 531 kts 82°
2026-04-15 22:24 29.86205 -92.84395 35106 ft 530 kts 82°
2026-04-15 22:25 29.87390 -92.76001 35105 ft 529 kts 82°
2026-04-15 22:25 29.88574 -92.67626 35105 ft 528 kts 82°
2026-04-15 22:26 29.89741 -92.59313 35106 ft 528 kts 82°
2026-04-15 22:26 29.90901 -92.50962 35104 ft 527 kts 82°
2026-04-15 22:27 29.92063 -92.42608 35105 ft 526 kts 82°
2026-04-15 22:27 29.93211 -92.34328 35100 ft 525 kts 82°
2026-04-15 22:27 29.93784 -92.30162 34871 ft 525 kts 82°
2026-04-15 22:28 29.94355 -92.26030 34509 ft 516 kts 82°
2026-04-15 22:28 29.94918 -92.21967 33976 ft 510 kts 82°
2026-04-15 22:28 29.95474 -92.17944 33672 ft 506 kts 82°
2026-04-15 22:28 29.96023 -92.13937 33410 ft 505 kts 82°
2026-04-15 22:29 29.96566 -92.09940 33155 ft 504 kts 82°
2026-04-15 22:29 29.97098 -92.05994 32903 ft 503 kts 82°
2026-04-15 22:29 29.97635 -92.02010 32649 ft 502 kts 82°
2026-04-15 22:29 29.98171 -91.98035 32399 ft 501 kts 82°
2026-04-15 22:30 29.98709 -91.94063 32169 ft 500 kts 82°
2026-04-15 22:30 29.99070 -91.91382 32004 ft 500 kts 82°
2026-04-15 22:30 29.99593 -91.87480 31632 ft 499 kts 82°
2026-04-15 22:30 30.00122 -91.83516 30435 ft 497 kts 83°
2026-04-15 22:31 30.00649 -91.79589 29067 ft 493 kts 83°
2026-04-15 22:31 30.01175 -91.75680 27717 ft 492 kts 82°
2026-04-15 22:31 30.01697 -91.71778 26430 ft 492 kts 82°
2026-04-15 22:31 30.02216 -91.67863 25204 ft 496 kts 82°
2026-04-15 22:32 30.02731 -91.63965 24032 ft 495 kts 82°
2026-04-15 22:32 30.03251 -91.60031 22944 ft 491 kts 82°
2026-04-15 22:32 30.03763 -91.56168 21958 ft 481 kts 82°
2026-04-15 22:32 30.04264 -91.52342 20959 ft 479 kts 83°
2026-04-15 22:33 30.04745 -91.48670 20605 ft 446 kts 83°
2026-04-15 22:33 30.05198 -91.45248 20365 ft 415 kts 83°
2026-04-15 22:33 30.05615 -91.42104 20245 ft 387 kts 83°
2026-04-15 22:33 30.06011 -91.39127 19996 ft 365 kts 83°
2026-04-15 22:34 30.06387 -91.36266 19433 ft 356 kts 83°
2026-04-15 22:34 30.06751 -91.33456 18801 ft 351 kts 83°
2026-04-15 22:34 30.07108 -91.30680 18136 ft 347 kts 83°
2026-04-15 22:34 30.07456 -91.27973 17430 ft 342 kts 83°
2026-04-15 22:35 30.07804 -91.25259 16750 ft 338 kts 83°
2026-04-15 22:35 30.08148 -91.22580 16102 ft 334 kts 84°
2026-04-15 22:35 30.08483 -91.19983 15475 ft 330 kts 83°
2026-04-15 22:35 30.08820 -91.17372 14880 ft 325 kts 83°
2026-04-15 22:36 30.09153 -91.14799 14305 ft 321 kts 84°
2026-04-15 22:36 30.09483 -91.12257 13694 ft 318 kts 84°
2026-04-15 22:36 30.09805 -91.09777 13032 ft 314 kts 84°
2026-04-15 22:36 30.10124 -91.07301 12391 ft 309 kts 84°
2026-04-15 22:37 30.10437 -91.04852 11859 ft 306 kts 84°
2026-04-15 22:37 30.10741 -91.02424 11680 ft 306 kts 84°
2026-04-15 22:37 30.11049 -90.99991 11552 ft 304 kts 84°
2026-04-15 22:37 30.11351 -90.97603 11383 ft 304 kts 84°
2026-04-15 22:38 30.11598 -90.95189 11225 ft 301 kts 91°
2026-04-15 22:38 30.11484 -90.92765 10844 ft 301 kts 97°
2026-04-15 22:38 30.11293 -90.90361 10485 ft 299 kts 98°
2026-04-15 22:38 30.11100 -90.87979 10104 ft 297 kts 98°
2026-04-15 22:39 30.10910 -90.85639 9690 ft 296 kts 97°
2026-04-15 22:39 30.10720 -90.83289 9298 ft 293 kts 97°
2026-04-15 22:39 30.10532 -90.80949 8881 ft 291 kts 97°
2026-04-15 22:39 30.10345 -90.78629 8503 ft 288 kts 97°
2026-04-15 22:40 30.10158 -90.76336 8121 ft 286 kts 97°
2026-04-15 22:40 30.09973 -90.74055 7750 ft 283 kts 97°
2026-04-15 22:40 30.09795 -90.71829 7370 ft 281 kts 97°
2026-04-15 22:41 30.09052 -90.67467 6654 ft 273 kts 107°
2026-04-15 22:41 30.08560 -90.65400 6293 ft 258 kts 107°
2026-04-15 22:41 30.08098 -90.63453 5953 ft 244 kts 107°
2026-04-15 22:41 30.07664 -90.61620 5648 ft 236 kts 107°
2026-04-15 22:42 30.07228 -90.59792 5334 ft 236 kts 107°
2026-04-15 22:42 30.06797 -90.57986 5036 ft 235 kts 107°
2026-04-15 22:42 30.06364 -90.56174 4720 ft 234 kts 107°
2026-04-15 22:42 30.05933 -90.54368 4411 ft 232 kts 108°
2026-04-15 22:43 30.05505 -90.52573 4104 ft 230 kts 108°
2026-04-15 22:43 30.05084 -90.50806 3810 ft 228 kts 108°
2026-04-15 22:43 30.04666 -90.49049 3507 ft 225 kts 108°
2026-04-15 22:43 30.04251 -90.47310 3207 ft 223 kts 108°
2026-04-15 22:44 30.03844 -90.45607 2921 ft 222 kts 108°
2026-04-15 22:44 30.03433 -90.43889 2631 ft 220 kts 108°
2026-04-15 22:44 30.03035 -90.42219 2340 ft 210 kts 108°
2026-04-15 22:44 30.02659 -90.40635 2087 ft 198 kts 108°
2026-04-15 22:45 30.02305 -90.39147 1839 ft 185 kts 108°
2026-04-15 22:45 30.01976 -90.37766 1604 ft 176 kts 109°
2026-04-15 22:45 30.01662 -90.36457 1404 ft 160 kts 109°
2026-04-15 22:45 30.01380 -90.35276 1211 ft 146 kts 109°
2026-04-15 22:46 30.01117 -90.34182 1029 ft 137 kts 111°
2026-04-15 22:46 30.00867 -90.33147 868 ft 133 kts 111°
2026-04-15 22:46 30.00624 -90.32136 703 ft 129 kts 112°
2026-04-15 22:46 30.00380 -90.31132 550 ft 130 kts 110°
2026-04-15 22:47 30.00142 -90.30144 401 ft 126 kts 108°
2026-04-15 22:47 29.99914 -90.29180 240 ft 123 kts 110°
2026-04-15 22:47 29.99679 -90.28229 53 ft 123 kts 108°
2026-04-15 22:47 29.99466 -90.27353 4 ft 95 kts 105°
2026-04-15 22:48 29.99330 -90.26794 11 ft 53 kts 106°
2026-04-15 22:48 29.99241 -90.26426 9 ft 43 kts 105°
2026-04-15 22:48 29.99166 -90.26117 5 ft 38 kts 106°
2026-04-15 22:48 29.99112 -90.25851 7 ft 30 kts 99°
2026-04-15 22:49 29.99104 -90.25649 6 ft 22 kts 36°
2026-04-15 22:49 29.99212 -90.25675 4 ft 17 kts 281°
2026-04-15 22:49 29.99238 -90.25806 5 ft 16 kts 299°
2026-04-15 22:49 29.99326 -90.25858 4 ft 14 kts
2026-04-15 22:50 29.99415 -90.25828 4 ft 10 kts 17°
2026-04-15 22:50 29.99464 -90.25853 5 ft 8 kts 297°
2026-04-15 22:50 29.99476 -90.25914 5 ft 8 kts 283°
2026-04-15 22:50 29.99491 -90.25971 5 ft 7 kts 287°
2026-04-15 22:51 29.99511 -90.26016 6 ft 6 kts 317°
2026-04-15 22:51 29.99540 -90.26023 6 ft 3 kts 14°
2026-04-15 22:51 29.99554 -90.26017 7 ft 1 kts 24°
2026-04-15 22:51 29.99567 -90.26009 7 ft 4 kts 30°
2026-04-15 22:52 29.99589 -90.25995 7 ft 1 kts 28°
2026-04-15 22:52 29.99597 -90.25990 7 ft 2 kts 27°
2026-04-15 22:52 29.99604 -90.25986 8 ft 0 kts 27°